Time,TemperatureF,DewpointF,PressureIn,WindDirection,WindDirectionDegrees,WindSpeedMPH,WindSpeedGustMPH,Humidity,HourlyPrecipIn,Conditions,Clouds,dailyrainin,SoftwareType,DateUTC
2013-09-16 00:10:00,53.6,53.0,30.01,SSW,202,0.0,-999.0,98,-99.99,,,0.00,Acu-Link.com,2013-09-16 04:10:00,
2013-09-16 00:25:00,53.6,53.0,29.99,South,180,0.0,-999.0,98,-99.99,,,0.01,Acu-Link.com,2013-09-16 04:25:00,
2013-09-16 00:40:00,53.6,53.0,29.99,WSW,247,0.0,-999.0,98,-99.99,,,0.01,Acu-Link.com,2013-09-16 04:40:00,
2013-09-16 00:56:00,53.6,53.0,29.98,East,90,0.0,-999.0,98,-99.99,,,0.01,Acu-Link.com,2013-09-16 04:56:00,
2013-09-16 01:11:00,53.6,53.0,29.99,ESE,112,0.0,-999.0,98,-99.99,,,0.01,Acu-Link.com,2013-09-16 05:11:00,
2013-09-16 01:26:00,53.6,53.0,29.98,ESE,112,0.0,-999.0,98,-99.99,,,0.01,Acu-Link.com,2013-09-16 05:26:00,
2013-09-16 01:42:00,53.6,53.0,29.98,ESE,112,0.0,-999.0,98,-99.99,,,0.01,Acu-Link.com,2013-09-16 05:42:00,
2013-09-16 01:57:00,53.6,53.0,29.98,East,90,0.0,-999.0,98,-99.99,,,0.01,Acu-Link.com,2013-09-16 05:57:00,
2013-09-16 02:12:00,53.4,52.8,29.98,South,180,0.0,-999.0,98,-99.99,,,0.01,Acu-Link.com,2013-09-16 06:12:00,
2013-09-16 02:28:00,53.4,52.8,29.98,SW,225,0.0,-999.0,98,-99.99,,,0.01,Acu-Link.com,2013-09-16 06:28:00,
2013-09-16 02:43:00,53.4,52.8,29.98,SW,225,0.0,-999.0,98,-99.99,,,0.01,Acu-Link.com,2013-09-16 06:43:00,
2013-09-16 02:58:00,53.4,52.8,29.98,SW,225,0.0,-999.0,98,-99.99,,,0.01,Acu-Link.com,2013-09-16 06:58:00,
2013-09-16 03:13:00,53.4,52.8,29.98,SW,225,0.0,-999.0,98,-99.99,,,0.01,Acu-Link.com,2013-09-16 07:13:00,
2013-09-16 03:29:00,53.4,52.8,29.98,SW,225,0.0,-999.0,98,-99.99,,,0.01,Acu-Link.com,2013-09-16 07:29:00,
2013-09-16 03:44:00,53.4,52.8,29.98,SW,225,0.0,-999.0,98,-99.99,,,0.01,Acu-Link.com,2013-09-16 07:44:00,
2013-09-16 03:59:00,53.2,52.6,29.98,SE,135,0.0,-999.0,98,-99.99,,,0.01,Acu-Link.com,2013-09-16 07:59:00,
2013-09-16 04:17:00,53.2,52.6,29.98,SE,135,0.0,-999.0,98,-99.99,,,0.01,Acu-Link.com,2013-09-16 08:17:00,
2013-09-16 04:33:00,53.2,52.6,29.97,SE,135,0.0,-999.0,98,-99.99,,,0.01,Acu-Link.com,2013-09-16 08:33:00,
2013-09-16 04:48:00,53.2,52.6,29.98,SE,135,0.0,-999.0,98,-99.99,,,0.01,Acu-Link.com,2013-09-16 08:48:00,
2013-09-16 05:03:00,53.4,52.8,29.98,SE,135,0.0,-999.0,98,-99.99,,,0.01,Acu-Link.com,2013-09-16 09:03:00,
2013-09-16 05:18:00,53.4,52.8,29.99,SE,135,0.0,-999.0,98,-99.99,,,0.01,Acu-Link.com,2013-09-16 09:18:00,
2013-09-16 05:33:00,53.4,52.8,30.00,SE,135,0.0,-999.0,98,-99.99,,,0.01,Acu-Link.com,2013-09-16 09:33:00,
2013-09-16 05:48:00,53.6,53.0,29.99,SE,135,0.0,-999.0,98,-99.99,,,0.01,Acu-Link.com,2013-09-16 09:48:00,
2013-09-16 06:03:00,52.5,52.0,30.01,SE,135,0.0,-999.0,98,-99.99,,,0.01,Acu-Link.com,2013-09-16 10:03:00,
2013-09-16 06:19:00,51.8,51.3,30.02,SE,135,0.0,-999.0,98,-99.99,,,0.01,Acu-Link.com,2013-09-16 10:19:00,
2013-09-16 06:34:00,51.3,50.8,30.01,SE,135,0.0,-999.0,98,-99.99,,,0.01,Acu-Link.com,2013-09-16 10:34:00,
2013-09-16 06:49:00,50.9,50.4,30.02,SE,135,0.0,-999.0,98,-99.99,,,0.01,Acu-Link.com,2013-09-16 10:49:00,
2013-09-16 07:05:00,50.9,50.4,30.03,SE,135,0.0,-999.0,98,-99.99,,,0.01,Acu-Link.com,2013-09-16 11:05:00,
2013-09-16 07:20:00,51.3,50.8,30.03,SE,135,0.0,-999.0,98,-99.99,,,0.01,Acu-Link.com,2013-09-16 11:20:00,
2013-09-16 07:35:00,52.3,51.8,30.04,SE,135,0.0,-999.0,98,-99.99,,,0.01,Acu-Link.com,2013-09-16 11:35:00,
2013-09-16 07:50:00,53.4,52.8,30.05,West,270,0.0,-999.0,98,-99.99,,,0.01,Acu-Link.com,2013-09-16 11:50:00,
2013-09-16 08:06:00,54.0,53.4,30.05,SSW,202,0.0,-999.0,98,-99.99,,,0.01,Acu-Link.com,2013-09-16 12:06:00,
2013-09-16 08:21:00,54.7,54.1,30.05,SSW,202,0.0,-999.0,98,-99.99,,,0.01,Acu-Link.com,2013-09-16 12:21:00,
2013-09-16 08:36:00,55.0,54.4,30.06,SW,225,0.0,-999.0,98,-99.99,,,0.01,Acu-Link.com,2013-09-16 12:36:00,
2013-09-16 08:52:00,55.4,54.8,30.06,West,270,0.0,-999.0,98,-99.99,,,0.01,Acu-Link.com,2013-09-16 12:52:00,
2013-09-16 09:07:00,55.6,55.0,30.07,SW,225,0.0,-999.0,98,-99.99,,,0.01,Acu-Link.com,2013-09-16 13:07:00,
2013-09-16 09:22:00,56.1,55.5,30.07,West,270,0.0,-999.0,98,-99.99,,,0.01,Acu-Link.com,2013-09-16 13:22:00,
2013-09-16 09:37:00,56.1,55.5,30.09,NW,315,1.7,-999.0,98,-99.99,,,0.02,Acu-Link.com,2013-09-16 13:37:00,
2013-09-16 09:52:00,55.2,54.6,30.09,ENE,67,3.2,-999.0,98,-99.99,,,0.02,Acu-Link.com,2013-09-16 13:52:00,
2013-09-16 10:07:00,54.1,53.5,30.11,WNW,292,2.7,-999.0,98,-99.99,,,0.03,Acu-Link.com,2013-09-16 14:07:00,
2013-09-16 10:23:00,54.1,53.5,30.12,NE,45,1.1,-999.0,98,-99.99,,,0.03,Acu-Link.com,2013-09-16 14:23:00,
2013-09-16 10:38:00,53.2,52.6,30.13,North,0,6.3,-999.0,98,-99.99,,,0.03,Acu-Link.com,2013-09-16 14:38:00,
2013-09-16 10:53:00,52.9,52.4,30.14,ENE,67,2.2,-999.0,98,-99.99,,,0.03,Acu-Link.com,2013-09-16 14:53:00,
2013-09-16 11:08:00,52.9,52.4,30.14,WNW,292,3.2,-999.0,98,-99.99,,,0.03,Acu-Link.com,2013-09-16 15:08:00,
2013-09-16 11:23:00,52.7,52.2,30.16,WSW,247,1.1,-999.0,98,-99.99,,,0.03,Acu-Link.com,2013-09-16 15:23:00,
2013-09-16 11:38:00,52.5,52.0,30.15,West,270,5.8,-999.0,98,-99.99,,,0.03,Acu-Link.com,2013-09-16 15:38:00,
2013-09-16 11:53:00,52.5,52.0,30.16,West,270,3.2,-999.0,98,-99.99,,,0.03,Acu-Link.com,2013-09-16 15:53:00,
2013-09-16 12:09:00,52.7,52.2,30.16,NNW,337,2.7,-999.0,98,-99.99,,,0.03,Acu-Link.com,2013-09-16 16:09:00,
2013-09-16 12:24:00,52.5,52.0,30.16,NNW,337,2.7,-999.0,98,-99.99,,,0.03,Acu-Link.com,2013-09-16 16:24:00,
2013-09-16 12:39:00,52.7,52.2,30.17,SE,135,2.2,-999.0,98,-99.99,,,0.03,Acu-Link.com,2013-09-16 16:39:00,
2013-09-16 12:54:00,52.7,52.2,30.17,NE,45,2.7,-999.0,98,-99.99,,,0.03,Acu-Link.com,2013-09-16 16:54:00,
2013-09-16 13:09:00,52.7,52.2,30.17,West,270,2.2,-999.0,98,-99.99,,,0.03,Acu-Link.com,2013-09-16 17:09:00,
2013-09-16 13:25:00,52.7,52.2,30.19,ENE,67,2.7,-999.0,98,-99.99,,,0.03,Acu-Link.com,2013-09-16 17:25:00,
2013-09-16 13:40:00,53.1,52.5,30.19,WNW,292,4.2,-999.0,98,-99.99,,,0.03,Acu-Link.com,2013-09-16 17:40:00,
2013-09-16 13:55:00,53.1,52.5,30.20,NW,315,2.7,-999.0,98,-99.99,,,0.03,Acu-Link.com,2013-09-16 17:55:00,
2013-09-16 14:10:00,53.1,51.4,30.19,NW,315,3.7,-999.0,94,-99.99,,,0.03,Acu-Link.com,2013-09-16 18:10:00,
2013-09-16 14:26:00,53.4,51.7,30.20,West,270,0.0,-999.0,94,-99.99,,,0.03,Acu-Link.com,2013-09-16 18:26:00,
2013-09-16 14:41:00,53.8,51.8,30.20,NE,45,1.7,-999.0,93,-99.99,,,0.03,Acu-Link.com,2013-09-16 18:41:00,
2013-09-16 14:56:00,54.1,51.8,30.19,NNW,337,1.7,-999.0,92,-99.99,,,0.03,Acu-Link.com,2013-09-16 18:56:00,
2013-09-16 15:11:00,53.4,50.8,30.20,NNW,337,2.2,-999.0,91,-99.99,,,0.03,Acu-Link.com,2013-09-16 19:11:00,
2013-09-16 15:27:00,54.0,51.4,30.20,SE,135,1.1,-999.0,91,-99.99,,,0.03,Acu-Link.com,2013-09-16 19:27:00,
2013-09-16 15:42:00,54.7,51.2,30.20,West,270,2.2,-999.0,88,-99.99,,,0.03,Acu-Link.com,2013-09-16 19:42:00,
2013-09-16 15:57:00,54.0,50.5,30.20,West,270,2.2,-999.0,88,-99.99,,,0.03,Acu-Link.com,2013-09-16 19:57:00,
2013-09-16 16:13:00,53.6,50.4,30.20,NW,315,1.7,-999.0,89,-99.99,,,0.03,Acu-Link.com,2013-09-16 20:13:00,
2013-09-16 16:28:00,53.2,50.3,30.20,West,270,2.2,-999.0,90,-99.99,,,0.03,Acu-Link.com,2013-09-16 20:28:00,
2013-09-16 16:43:00,53.4,50.5,30.20,NNW,337,1.7,-999.0,90,-99.99,,,0.03,Acu-Link.com,2013-09-16 20:43:00,
2013-09-16 16:58:00,53.2,50.6,30.21,WNW,292,2.7,-999.0,91,-99.99,,,0.03,Acu-Link.com,2013-09-16 20:58:00,
2013-09-16 17:14:00,53.4,50.2,30.21,West,270,0.0,-999.0,89,-99.99,,,0.03,Acu-Link.com,2013-09-16 21:14:00,
2013-09-16 17:29:00,53.6,49.5,30.21,NNW,337,0.0,-999.0,86,-99.99,,,0.03,Acu-Link.com,2013-09-16 21:29:00,
2013-09-16 17:44:00,53.2,49.4,30.23,ENE,67,1.1,-999.0,87,-99.99,,,0.03,Acu-Link.com,2013-09-16 21:44:00,
2013-09-16 17:59:00,52.9,48.5,30.22,NW,315,2.2,-999.0,85,-99.99,,,0.03,Acu-Link.com,2013-09-16 21:59:00,
2013-09-16 18:30:00,52.0,49.2,30.22,ESE,112,0.0,-999.0,90,-99.99,,,0.03,Acu-Link.com,2013-09-16 22:30:00,
2013-09-16 18:45:00,51.3,49.1,30.22,East,90,0.0,-999.0,92,-99.99,,,0.03,Acu-Link.com,2013-09-16 22:45:00,
2013-09-16 19:01:00,50.0,49.5,30.22,East,90,0.0,-999.0,98,-99.99,,,0.03,Acu-Link.com,2013-09-16 23:01:00,
2013-09-16 19:16:00,48.9,48.4,30.23,East,90,0.0,-999.0,98,-99.99,,,0.03,Acu-Link.com,2013-09-16 23:16:00,
2013-09-16 19:31:00,47.8,47.3,30.24,East,90,0.0,-999.0,98,-99.99,,,0.03,Acu-Link.com,2013-09-16 23:31:00,
2013-09-16 19:47:00,47.1,46.6,30.24,East,90,0.0,-999.0,98,-99.99,,,0.03,Acu-Link.com,2013-09-16 23:47:00,
2013-09-16 20:02:00,46.4,45.9,30.25,East,90,0.0,-999.0,98,-99.99,,,0.03,Acu-Link.com,2013-09-17 00:02:00,
2013-09-16 20:17:00,45.9,45.4,30.26,East,90,0.0,-999.0,98,-99.99,,,0.03,Acu-Link.com,2013-09-17 00:17:00,
2013-09-16 20:33:00,45.3,44.8,30.26,East,90,0.0,-999.0,98,-99.99,,,0.03,Acu-Link.com,2013-09-17 00:33:00,
2013-09-16 20:48:00,45.0,44.5,30.26,East,90,0.0,-999.0,98,-99.99,,,0.03,Acu-Link.com,2013-09-17 00:48:00,
2013-09-16 21:03:00,44.6,44.1,30.27,East,90,0.0,-999.0,98,-99.99,,,0.03,Acu-Link.com,2013-09-17 01:03:00,
2013-09-16 21:18:00,44.2,43.7,30.27,East,90,0.0,-999.0,98,-99.99,,,0.03,Acu-Link.com,2013-09-17 01:18:00,
2013-09-16 21:34:00,44.1,43.6,30.27,East,90,0.0,-999.0,98,-99.99,,,0.03,Acu-Link.com,2013-09-17 01:34:00,
2013-09-16 21:49:00,43.5,43.0,30.28,East,90,0.0,-999.0,98,-99.99,,,0.03,Acu-Link.com,2013-09-17 01:49:00,
2013-09-16 22:04:00,43.2,42.7,30.28,East,90,0.0,-999.0,98,-99.99,,,0.03,Acu-Link.com,2013-09-17 02:04:00,
2013-09-16 22:19:00,43.0,42.5,30.27,East,90,0.0,-999.0,98,-99.99,,,0.03,Acu-Link.com,2013-09-17 02:19:00,
2013-09-16 22:35:00,42.8,42.3,30.28,East,90,0.0,-999.0,98,-99.99,,,0.03,Acu-Link.com,2013-09-17 02:35:00,
2013-09-16 22:50:00,42.6,42.1,30.28,East,90,0.0,-999.0,98,-99.99,,,0.03,Acu-Link.com,2013-09-17 02:50:00,
2013-09-16 23:05:00,42.4,41.9,30.28,East,90,0.0,-999.0,98,-99.99,,,0.03,Acu-Link.com,2013-09-17 03:05:00,
2013-09-16 23:20:00,42.3,41.8,30.29,East,90,0.0,-999.0,98,-99.99,,,0.03,Acu-Link.com,2013-09-17 03:20:00,
2013-09-16 23:36:00,41.9,41.4,30.29,East,90,0.0,-999.0,98,-99.99,,,0.03,Acu-Link.com,2013-09-17 03:36:00,
2013-09-16 23:51:00,41.7,41.2,30.29,East,90,0.0,-999.0,98,-99.99,,,0.03,Acu-Link.com,2013-09-17 03:51:00,